Time,TemperatureF,DewpointF,PressureIn,WindDirection,WindDirectionDegrees,WindSpeedMPH,WindSpeedGustMPH,Humidity,HourlyPrecipIn,Conditions,Clouds,dailyrainin,SoftwareType,DateUTC
2013-01-19 00:00:00,30.0,19.7,29.45,SSW,202,3.0,5.0,65,0.00,,,0.00,Weather View 32 v70,2013-01-19 05:00:00,
2013-01-19 00:01:00,30.0,19.7,29.45,West,270,0.0,5.0,65,0.00,,,0.00,Weather View 32 v70,2013-01-19 05:01:00,
2013-01-19 00:03:00,30.0,19.7,29.45,West,270,0.0,5.0,65,0.00,,,0.00,Weather View 32 v70,2013-01-19 05:03:00,
2013-01-19 00:08:00,30.0,20.0,29.44,South,180,2.0,5.0,66,0.00,,,0.00,Weather View 32 v70,2013-01-19 05:08:00,
2013-01-19 00:13:00,30.0,20.0,29.44,WSW,247,1.0,5.0,66,0.00,,,0.00,Weather View 32 v70,2013-01-19 05:13:00,
2013-01-19 00:18:00,30.0,20.0,29.44,SW,225,1.0,8.0,66,0.00,,,0.00,Weather View 32 v70,2013-01-19 05:18:00,
2013-01-19 00:23:00,30.0,20.4,29.44,SSW,202,2.0,8.0,67,0.00,,,0.00,Weather View 32 v70,2013-01-19 05:23:00,
2013-01-19 00:28:00,30.0,20.7,29.44,SSE,157,1.0,8.0,68,0.00,,,0.00,Weather View 32 v70,2013-01-19 05:28:00,
2013-01-19 00:33:00,30.0,20.4,29.44,SSW,202,0.0,8.0,67,0.00,,,0.00,Weather View 32 v70,2013-01-19 05:33:00,
2013-01-19 00:38:00,31.0,21.7,29.43,South,180,0.0,8.0,68,0.00,,,0.00,Weather View 32 v70,2013-01-19 05:38:00,
2013-01-19 00:43:00,31.0,21.7,29.43,West,270,1.0,9.0,68,0.00,,,0.00,Weather View 32 v70,2013-01-19 05:43:00,
2013-01-19 00:48:00,31.0,21.7,29.43,SW,225,0.0,9.0,68,0.00,,,0.00,Weather View 32 v70,2013-01-19 05:48:00,
2013-01-19 00:53:00,31.0,21.7,29.43,South,180,0.0,9.0,68,0.00,,,0.00,Weather View 32 v70,2013-01-19 05:53:00,
2013-01-19 00:58:00,31.0,22.0,29.43,SW,225,6.0,9.0,69,0.00,,,0.00,Weather View 32 v70,2013-01-19 05:58:00,
2013-01-19 01:03:00,31.0,22.0,29.43,WSW,247,0.0,9.0,69,0.00,,,0.00,Weather View 32 v70,2013-01-19 06:03:00,
2013-01-19 01:10:00,31.0,21.7,29.43,SSW,202,0.0,9.0,68,0.00,,,0.00,Weather View 32 v70,2013-01-19 06:10:00,
2013-01-19 01:15:00,31.0,22.0,29.43,West,270,3.0,9.0,69,0.00,,,0.00,Weather View 32 v70,2013-01-19 06:15:00,
2013-01-19 01:20:00,31.0,22.0,29.43,WSW,247,1.0,9.0,69,0.00,,,0.00,Weather View 32 v70,2013-01-19 06:20:00,
2013-01-19 01:25:00,31.0,22.4,29.43,WSW,247,0.0,9.0,70,0.00,,,0.00,Weather View 32 v70,2013-01-19 06:25:00,
2013-01-19 01:30:00,31.0,22.4,29.42,SE,135,1.0,9.0,70,0.00,,,0.00,Weather View 32 v70,2013-01-19 06:30:00,
2013-01-19 01:35:00,31.0,22.4,29.42,SW,225,5.0,9.0,70,0.00,,,0.00,Weather View 32 v70,2013-01-19 06:35:00,
2013-01-19 01:40:00,31.0,22.4,29.42,WSW,247,0.0,9.0,70,0.00,,,0.00,Weather View 32 v70,2013-01-19 06:40:00,
2013-01-19 01:45:00,31.0,22.4,29.43,South,180,0.0,9.0,70,0.00,,,0.00,Weather View 32 v70,2013-01-19 06:45:00,
2013-01-19 01:50:00,31.0,22.7,29.43,ESE,112,0.0,9.0,71,0.00,,,0.00,Weather View 32 v70,2013-01-19 06:50:00,
2013-01-19 01:55:00,31.0,22.7,29.43,SSE,157,0.0,9.0,71,0.00,,,0.00,Weather View 32 v70,2013-01-19 06:55:00,
2013-01-19 02:00:00,31.0,22.7,29.43,SSW,202,3.0,8.0,71,0.00,,,0.00,Weather View 32 v70,2013-01-19 07:00:00,
2013-01-19 02:05:00,31.0,23.0,29.43,West,270,0.0,8.0,72,0.00,,,0.00,Weather View 32 v70,2013-01-19 07:05:00,
2013-01-19 02:10:00,31.0,23.0,29.43,WSW,247,0.0,8.0,72,0.00,,,0.00,Weather View 32 v70,2013-01-19 07:10:00,
2013-01-19 02:15:00,31.0,23.0,29.43,SSW,202,3.0,8.0,72,0.00,,,0.00,Weather View 32 v70,2013-01-19 07:15:00,
2013-01-19 02:20:00,31.0,23.0,29.43,South,180,1.0,8.0,72,0.00,,,0.00,Weather View 32 v70,2013-01-19 07:20:00,
2013-01-19 02:25:00,31.0,23.4,29.43,SSE,157,1.0,8.0,73,0.00,,,0.00,Weather View 32 v70,2013-01-19 07:25:00,
2013-01-19 02:30:00,31.0,23.4,29.42,SSE,157,0.0,8.0,73,0.00,,,0.00,Weather View 32 v70,2013-01-19 07:30:00,
2013-01-19 02:35:00,31.0,23.4,29.43,SW,225,0.0,8.0,73,0.00,,,0.00,Weather View 32 v70,2013-01-19 07:35:00,
2013-01-19 02:40:00,31.0,23.4,29.43,SW,225,0.0,7.0,73,0.00,,,0.00,Weather View 32 v70,2013-01-19 07:40:00,
2013-01-19 02:45:00,31.0,23.4,29.43,SW,225,1.0,7.0,73,0.00,,,0.00,Weather View 32 v70,2013-01-19 07:45:00,
2013-01-19 02:50:00,31.0,23.4,29.43,SSE,157,5.0,7.0,73,0.00,,,0.00,Weather View 32 v70,2013-01-19 07:50:00,
2013-01-19 02:55:00,31.0,23.7,29.43,SSE,157,1.0,7.0,74,0.00,,,0.00,Weather View 32 v70,2013-01-19 07:55:00,
2013-01-19 03:00:00,31.0,23.7,29.43,WSW,247,0.0,7.0,74,0.00,,,0.00,Weather View 32 v70,2013-01-19 08:00:00,
2013-01-19 03:05:00,31.0,23.7,29.42,WSW,247,0.0,7.0,74,0.00,,,0.00,Weather View 32 v70,2013-01-19 08:05:00,
2013-01-19 03:10:00,31.0,24.0,29.42,SW,225,0.0,7.0,75,0.00,,,0.00,Weather View 32 v70,2013-01-19 08:10:00,
2013-01-19 03:15:00,31.0,24.0,29.42,SSE,157,0.0,7.0,75,0.00,,,0.00,Weather View 32 v70,2013-01-19 08:15:00,
2013-01-19 03:20:00,31.0,24.0,29.42,South,180,0.0,7.0,75,0.00,,,0.00,Weather View 32 v70,2013-01-19 08:20:00,
2013-01-19 03:25:00,30.0,23.0,29.42,WSW,247,0.0,7.0,75,0.00,,,0.00,Weather View 32 v70,2013-01-19 08:25:00,
2013-01-19 03:30:00,30.0,23.0,29.42,WSW,247,1.0,7.0,75,0.00,,,0.00,Weather View 32 v70,2013-01-19 08:30:00,
2013-01-19 03:35:00,31.0,24.0,29.42,East,90,0.0,7.0,75,0.00,,,0.00,Weather View 32 v70,2013-01-19 08:35:00,
2013-01-19 03:40:00,31.0,24.0,29.42,SW,225,0.0,7.0,75,0.00,,,0.00,Weather View 32 v70,2013-01-19 08:40:00,
2013-01-19 03:45:00,31.0,24.0,29.41,South,180,0.0,7.0,75,0.00,,,0.00,Weather View 32 v70,2013-01-19 08:45:00,
2013-01-19 03:50:00,31.0,24.0,29.41,SW,225,4.0,7.0,75,0.00,,,0.00,Weather View 32 v70,2013-01-19 08:50:00,
2013-01-19 03:55:00,31.0,24.0,29.42,SSE,157,0.0,9.0,75,0.00,,,0.00,Weather View 32 v70,2013-01-19 08:55:00,
2013-01-19 04:00:00,31.0,23.7,29.41,WSW,247,0.0,9.0,74,0.00,,,0.00,Weather View 32 v70,2013-01-19 09:00:00,
2013-01-19 04:05:00,31.0,24.0,29.41,SW,225,0.0,9.0,75,0.00,,,0.00,Weather View 32 v70,2013-01-19 09:05:00,
2013-01-19 04:10:00,31.0,24.0,29.41,SSE,157,0.0,9.0,75,0.00,,,0.00,Weather View 32 v70,2013-01-19 09:10:00,
2013-01-19 04:15:00,31.0,23.7,29.41,WSW,247,0.0,12.0,74,0.00,,,0.00,Weather View 32 v70,2013-01-19 09:15:00,
2013-01-19 04:20:00,31.0,23.7,29.40,South,180,5.0,12.0,74,0.00,,,0.00,Weather View 32 v70,2013-01-19 09:20:00,
2013-01-19 04:25:00,31.0,23.4,29.40,South,180,1.0,12.0,73,0.00,,,0.00,Weather View 32 v70,2013-01-19 09:25:00,
2013-01-19 04:30:00,31.0,23.4,29.41,WSW,247,0.0,12.0,73,0.00,,,0.00,Weather View 32 v70,2013-01-19 09:30:00,
2013-01-19 04:35:00,31.0,23.4,29.40,WNW,292,0.0,12.0,73,0.00,,,0.00,Weather View 32 v70,2013-01-19 09:35:00,
2013-01-19 04:40:00,31.0,23.4,29.40,WSW,247,0.0,12.0,73,0.00,,,0.00,Weather View 32 v70,2013-01-19 09:40:00,
2013-01-19 04:45:00,31.0,23.4,29.40,North,360,0.0,12.0,73,0.00,,,0.00,Weather View 32 v70,2013-01-19 09:45:00,
2013-01-19 04:50:00,31.0,23.4,29.40,WNW,292,0.0,12.0,73,0.00,,,0.00,Weather View 32 v70,2013-01-19 09:50:00,
2013-01-19 04:55:00,31.0,23.4,29.40,WSW,247,0.0,12.0,73,0.00,,,0.00,Weather View 32 v70,2013-01-19 09:55:00,
2013-01-19 05:00:00,31.0,23.4,29.40,SE,135,0.0,12.0,73,0.00,,,0.00,Weather View 32 v70,2013-01-19 10:00:00,
2013-01-19 05:05:00,31.0,23.4,29.40,WSW,247,4.0,12.0,73,0.00,,,0.00,Weather View 32 v70,2013-01-19 10:05:00,
2013-01-19 05:10:00,31.0,23.4,29.40,WSW,247,4.0,12.0,73,0.00,,,0.00,Weather View 32 v70,2013-01-19 10:10:00,
2013-01-19 05:15:00,31.0,23.0,29.40,West,270,0.0,11.0,72,0.00,,,0.00,Weather View 32 v70,2013-01-19 10:15:00,
2013-01-19 05:20:00,32.0,24.0,29.40,SSW,202,3.0,11.0,72,0.00,,,0.00,Weather View 32 v70,2013-01-19 10:20:00,
2013-01-19 05:25:00,32.0,24.0,29.40,SSW,202,2.0,11.0,72,0.00,,,0.00,Weather View 32 v70,2013-01-19 10:25:00,
2013-01-19 05:30:00,32.0,24.0,29.40,SSE,157,0.0,11.0,72,0.00,,,0.00,Weather View 32 v70,2013-01-19 10:30:00,
2013-01-19 05:35:00,31.0,23.0,29.40,WSW,247,2.0,11.0,72,0.00,,,0.00,Weather View 32 v70,2013-01-19 10:35:00,
2013-01-19 05:40:00,32.0,24.0,29.40,SSW,202,1.0,11.0,72,0.00,,,0.00,Weather View 32 v70,2013-01-19 10:40:00,
2013-01-19 05:45:00,32.0,24.0,29.39,NW,315,0.0,11.0,72,0.00,,,0.00,Weather View 32 v70,2013-01-19 10:45:00,
2013-01-19 05:50:00,32.0,24.0,29.40,SSE,157,0.0,12.0,72,0.00,,,0.00,Weather View 32 v70,2013-01-19 10:50:00,
2013-01-19 05:55:00,32.0,24.0,29.40,West,270,0.0,12.0,72,0.00,,,0.00,Weather View 32 v70,2013-01-19 10:55:00,
2013-01-19 06:00:00,32.0,24.3,29.40,SW,225,0.0,12.0,73,0.00,,,0.00,Weather View 32 v70,2013-01-19 11:00:00,
2013-01-19 06:05:00,31.0,23.4,29.40,SSW,202,0.0,12.0,73,0.00,,,0.00,Weather View 32 v70,2013-01-19 11:05:00,
2013-01-19 06:10:00,32.0,24.3,29.40,SSE,157,1.0,12.0,73,0.00,,,0.00,Weather View 32 v70,2013-01-19 11:10:00,
2013-01-19 07:47:00,32.0,24.3,29.39,SSW,202,3.0,12.0,73,0.00,,,0.00,Weather View 32 v70,2013-01-19 12:47:00,
2013-01-19 07:48:00,32.0,24.3,29.39,WSW,247,3.0,12.0,73,0.00,,,0.00,Weather View 32 v70,2013-01-19 12:48:00,
2013-01-19 07:53:00,32.0,24.3,29.39,SW,225,0.0,12.0,73,0.00,,,0.00,Weather View 32 v70,2013-01-19 12:53:00,
2013-01-19 07:59:00,32.0,24.3,29.39,WSW,247,3.0,12.0,73,0.00,,,0.00,Weather View 32 v70,2013-01-19 12:59:00,
2013-01-19 08:04:00,32.0,24.3,29.39,SSE,157,0.0,12.0,73,0.00,,,0.00,Weather View 32 v70,2013-01-19 13:04:00,
2013-01-19 08:08:00,32.0,24.3,29.38,SSW,202,0.0,12.0,73,0.00,,,0.00,Weather View 32 v70,2013-01-19 13:08:00,
2013-01-19 08:13:00,32.0,24.3,29.39,South,180,0.0,12.0,73,0.00,,,0.00,Weather View 32 v70,2013-01-19 13:13:00,
2013-01-19 08:18:00,32.0,24.6,29.39,WSW,247,1.0,8.0,74,0.00,,,0.00,Weather View 32 v70,2013-01-19 13:18:00,
2013-01-19 08:24:00,32.0,24.3,29.38,SSE,157,7.0,8.0,73,0.00,,,0.00,Weather View 32 v70,2013-01-19 13:24:00,
2013-01-19 08:29:00,33.0,25.0,29.39,SW,225,0.0,12.0,72,0.00,,,0.00,Weather View 32 v70,2013-01-19 13:29:00,
2013-01-19 08:33:00,33.0,25.0,29.39,South,180,0.0,12.0,72,0.00,,,0.00,Weather View 32 v70,2013-01-19 13:33:00,
2013-01-19 08:38:00,33.0,24.6,29.39,SW,225,0.0,12.0,71,0.00,,,0.00,Weather View 32 v70,2013-01-19 13:38:00,
2013-01-19 08:44:00,34.0,25.2,29.40,SW,225,0.0,12.0,70,0.00,,,0.00,Weather View 32 v70,2013-01-19 13:44:00,
2013-01-19 08:49:00,34.0,25.2,29.40,SE,135,3.0,12.0,70,0.00,,,0.00,Weather View 32 v70,2013-01-19 13:49:00,
2013-01-19 08:54:00,35.0,25.5,29.40,WSW,247,0.0,12.0,68,0.00,,,0.00,Weather View 32 v70,2013-01-19 13:54:00,
2013-01-19 08:59:00,35.0,25.5,29.40,SW,225,0.0,12.0,68,0.00,,,0.00,Weather View 32 v70,2013-01-19 13:59:00,
2013-01-19 09:04:00,36.0,25.4,29.40,SW,225,0.0,12.0,65,0.00,,,0.00,Weather View 32 v70,2013-01-19 14:04:00,
2013-01-19 09:08:00,36.0,25.0,29.40,SW,225,0.0,12.0,64,0.00,,,0.00,Weather View 32 v70,2013-01-19 14:08:00,
2013-01-19 09:14:00,37.0,24.8,29.40,West,270,0.0,12.0,61,0.00,,,0.00,Weather View 32 v70,2013-01-19 14:14:00,
2013-01-19 09:19:00,37.0,24.8,29.40,SW,225,5.0,12.0,61,0.00,,,0.00,Weather View 32 v70,2013-01-19 14:19:00,
2013-01-19 09:24:00,38.0,24.9,29.40,WSW,247,0.0,12.0,59,0.00,,,0.00,Weather View 32 v70,2013-01-19 14:24:00,
2013-01-19 09:29:00,38.0,24.5,29.40,SW,225,7.0,9.0,58,0.00,,,0.00,Weather View 32 v70,2013-01-19 14:29:00,
2013-01-19 09:33:00,38.0,24.1,29.40,WSW,247,1.0,9.0,57,0.00,,,0.00,Weather View 32 v70,2013-01-19 14:33:00,
2013-01-19 09:39:00,38.0,24.1,29.40,South,180,0.0,9.0,57,0.00,,,0.00,Weather View 32 v70,2013-01-19 14:39:00,
2013-01-19 09:44:00,39.0,24.6,29.40,WSW,247,0.0,14.0,56,0.00,,,0.00,Weather View 32 v70,2013-01-19 14:44:00,
2013-01-19 09:49:00,39.0,24.6,29.40,WSW,247,4.0,14.0,56,0.00,,,0.00,Weather View 32 v70,2013-01-19 14:49:00,
2013-01-19 09:53:00,39.0,23.7,29.40,SW,225,0.0,14.0,54,0.00,,,0.00,Weather View 32 v70,2013-01-19 14:53:00,
2013-01-19 09:58:00,40.0,24.7,29.40,WSW,247,2.0,14.0,54,0.00,,,0.00,Weather View 32 v70,2013-01-19 14:58:00,
2013-01-19 10:04:00,40.0,23.3,29.40,WSW,247,4.0,14.0,51,0.00,,,0.00,Weather View 32 v70,2013-01-19 15:04:00,
2013-01-19 10:09:00,41.0,24.2,29.40,West,270,2.0,14.0,51,0.00,,,0.00,Weather View 32 v70,2013-01-19 15:09:00,
2013-01-19 10:14:00,41.0,23.8,29.40,WSW,247,5.0,14.0,50,0.00,,,0.00,Weather View 32 v70,2013-01-19 15:14:00,
2013-01-19 10:19:00,42.0,25.2,29.40,SSW,202,2.0,14.0,51,0.00,,,0.00,Weather View 32 v70,2013-01-19 15:19:00,
2013-01-19 10:24:00,42.0,23.7,29.40,West,270,3.0,14.0,48,0.00,,,0.00,Weather View 32 v70,2013-01-19 15:24:00,
2013-01-19 10:29:00,43.0,24.6,29.40,ESE,112,0.0,14.0,48,0.00,,,0.00,Weather View 32 v70,2013-01-19 15:29:00,
2013-01-19 10:34:00,43.0,25.6,29.40,SSE,157,0.0,14.0,50,0.00,,,0.00,Weather View 32 v70,2013-01-19 15:34:00,
2013-01-19 10:39:00,44.0,25.5,29.40,NW,315,0.0,14.0,48,0.00,,,0.00,Weather View 32 v70,2013-01-19 15:39:00,
2013-01-19 10:44:00,45.0,26.0,29.40,SW,225,0.0,11.0,47,0.00,,,0.00,Weather View 32 v70,2013-01-19 15:44:00,
2013-01-19 10:49:00,45.0,24.9,29.39,West,270,0.0,11.0,45,0.00,,,0.00,Weather View 32 v70,2013-01-19 15:49:00,
2013-01-19 10:54:00,45.0,24.9,29.39,SW,225,6.0,11.0,45,0.00,,,0.00,Weather View 32 v70,2013-01-19 15:54:00,
2013-01-19 10:59:00,46.0,24.7,29.38,WSW,247,6.0,11.0,43,0.00,,,0.00,Weather View 32 v70,2013-01-19 15:59:00,
2013-01-19 11:04:00,46.0,24.7,29.38,WSW,247,0.0,11.0,43,0.00,,,0.00,Weather View 32 v70,2013-01-19 16:04:00,
2013-01-19 11:09:00,47.0,25.1,29.38,West,270,0.0,11.0,42,0.00,,,0.00,Weather View 32 v70,2013-01-19 16:09:00,
2013-01-19 11:14:00,47.0,25.1,29.38,WSW,247,0.0,11.0,42,0.00,,,0.00,Weather View 32 v70,2013-01-19 16:14:00,
2013-01-19 11:19:00,48.0,26.5,29.37,South,180,5.0,11.0,43,0.00,,,0.00,Weather View 32 v70,2013-01-19 16:19:00,
2013-01-19 11:24:00,48.0,24.8,29.37,SSE,157,1.0,11.0,40,0.00,,,0.00,Weather View 32 v70,2013-01-19 16:24:00,
2013-01-19 11:29:00,49.0,27.4,29.37,SE,135,6.0,11.0,43,0.00,,,0.00,Weather View 32 v70,2013-01-19 16:29:00,
2013-01-19 11:34:00,50.0,26.6,29.36,SW,225,0.0,11.0,40,0.00,,,0.00,Weather View 32 v70,2013-01-19 16:34:00,
2013-01-19 11:39:00,50.0,26.0,29.36,SSE,157,5.0,11.0,39,0.00,,,0.00,Weather View 32 v70,2013-01-19 16:39:00,
2013-01-19 11:44:00,50.0,26.0,29.36,SW,225,2.0,11.0,39,0.00,,,0.00,Weather View 32 v70,2013-01-19 16:44:00,
2013-01-19 11:49:00,50.0,26.0,29.36,SSW,202,0.0,11.0,39,0.00,,,0.00,Weather View 32 v70,2013-01-19 16:49:00,
2013-01-19 11:54:00,51.0,26.2,29.35,West,270,0.0,11.0,38,0.00,,,0.00,Weather View 32 v70,2013-01-19 16:54:00,
2013-01-19 11:59:00,51.0,25.6,29.34,SW,225,5.0,11.0,37,0.00,,,0.00,Weather View 32 v70,2013-01-19 16:59:00,
2013-01-19 12:04:00,51.0,25.6,29.34,SSW,202,6.0,11.0,37,0.00,,,0.00,Weather View 32 v70,2013-01-19 17:04:00,
2013-01-19 12:09:00,51.0,25.6,29.34,SSW,202,0.0,9.0,37,0.00,,,0.00,Weather View 32 v70,2013-01-19 17:09:00,
2013-01-19 12:15:00,51.0,25.6,29.33,South,180,3.0,9.0,37,0.00,,,0.00,Weather View 32 v70,2013-01-19 17:15:00,
2013-01-19 12:20:00,51.0,26.2,29.33,SSE,157,5.0,9.0,38,0.00,,,0.00,Weather View 32 v70,2013-01-19 17:20:00,
2013-01-19 12:25:00,51.0,25.6,29.32,SSE,157,5.0,9.0,37,0.00,,,0.00,Weather View 32 v70,2013-01-19 17:25:00,
2013-01-19 12:30:00,50.0,24.7,29.32,South,180,5.0,10.0,37,0.00,,,0.00,Weather View 32 v70,2013-01-19 17:30:00,
2013-01-19 12:35:00,51.0,26.9,29.32,SSW,202,1.0,10.0,39,0.00,,,0.00,Weather View 32 v70,2013-01-19 17:35:00,
2013-01-19 12:40:00,51.0,25.6,29.32,SSE,157,0.0,10.0,37,0.00,,,0.00,Weather View 32 v70,2013-01-19 17:40:00,
2013-01-19 12:45:00,51.0,25.6,29.32,SW,225,2.0,10.0,37,0.00,,,0.00,Weather View 32 v70,2013-01-19 17:45:00,
2013-01-19 12:50:00,52.0,26.5,29.32,SSE,157,7.0,10.0,37,0.00,,,0.00,Weather View 32 v70,2013-01-19 17:50:00,
2013-01-19 12:55:00,52.0,27.1,29.31,SSW,202,2.0,10.0,38,0.00,,,0.00,Weather View 32 v70,2013-01-19 17:55:00,
2013-01-19 13:00:00,53.0,26.7,29.31,South,180,0.0,10.0,36,0.00,,,0.00,Weather View 32 v70,2013-01-19 18:00:00,
2013-01-19 13:06:00,53.0,26.7,29.31,SSE,157,0.0,10.0,36,0.00,,,0.00,Weather View 32 v70,2013-01-19 18:06:00,
2013-01-19 13:15:00,54.0,26.2,29.31,WSW,247,0.0,10.0,34,0.00,,,0.00,Weather View 32 v70,2013-01-19 18:15:00,
2013-01-19 13:20:00,54.0,26.2,29.31,SSE,157,7.0,10.0,34,0.00,,,0.00,Weather View 32 v70,2013-01-19 18:20:00,
2013-01-19 13:28:00,54.0,26.2,29.31,SW,225,1.0,10.0,34,0.00,,,0.00,Weather View 32 v70,2013-01-19 18:28:00,
2013-01-19 13:33:00,54.0,26.2,29.30,SSE,157,8.0,9.0,34,0.00,,,0.00,Weather View 32 v70,2013-01-19 18:33:00,
2013-01-19 13:38:00,54.0,26.2,29.30,WSW,247,0.0,9.0,34,0.00,,,0.00,Weather View 32 v70,2013-01-19 18:38:00,
2013-01-19 13:43:00,56.0,28.0,29.30,South,180,3.0,9.0,34,0.00,,,0.00,Weather View 32 v70,2013-01-19 18:43:00,
2013-01-19 13:48:00,56.0,25.7,29.30,South,180,3.0,11.0,31,0.00,,,0.00,Weather View 32 v70,2013-01-19 18:48:00,
2013-01-19 13:53:00,56.0,26.5,29.30,SW,225,0.0,11.0,32,0.00,,,0.00,Weather View 32 v70,2013-01-19 18:53:00,
2013-01-19 13:58:00,56.0,25.7,29.30,West,270,2.0,11.0,31,0.00,,,0.00,Weather View 32 v70,2013-01-19 18:58:00,
2013-01-19 14:04:00,57.0,26.6,29.30,West,270,0.0,11.0,31,0.00,,,0.00,Weather View 32 v70,2013-01-19 19:04:00,
2013-01-19 14:09:00,57.0,25.8,29.29,SE,135,8.0,11.0,30,0.00,,,0.00,Weather View 32 v70,2013-01-19 19:09:00,
2013-01-19 14:14:00,57.0,25.8,29.29,SSW,202,4.0,11.0,30,0.00,,,0.00,Weather View 32 v70,2013-01-19 19:14:00,
2013-01-19 14:20:00,57.0,26.6,29.29,SW,225,5.0,11.0,31,0.00,,,0.00,Weather View 32 v70,2013-01-19 19:20:00,
2013-01-19 14:25:00,57.0,26.6,29.28,WSW,247,0.0,11.0,31,0.00,,,0.00,Weather View 32 v70,2013-01-19 19:25:00,
2013-01-19 14:30:00,57.0,25.8,29.28,SW,225,2.0,11.0,30,0.00,,,0.00,Weather View 32 v70,2013-01-19 19:30:00,
2013-01-19 14:35:00,58.0,27.5,29.28,WSW,247,0.0,11.0,31,0.00,,,0.00,Weather View 32 v70,2013-01-19 19:35:00,
2013-01-19 14:40:00,58.0,27.5,29.28,SW,225,0.0,11.0,31,0.00,,,0.00,Weather View 32 v70,2013-01-19 19:40:00,
2013-01-19 14:45:00,57.0,25.0,29.28,WSW,247,7.0,11.0,29,0.00,,,0.00,Weather View 32 v70,2013-01-19 19:45:00,
2013-01-19 14:50:00,57.0,25.0,29.28,South,180,2.0,10.0,29,0.00,,,0.00,Weather View 32 v70,2013-01-19 19:50:00,
2013-01-19 14:55:00,57.0,25.8,29.27,SW,225,1.0,10.0,30,0.00,,,0.00,Weather View 32 v70,2013-01-19 19:55:00,
2013-01-19 15:00:00,57.0,25.8,29.27,SE,135,7.0,10.0,30,0.00,,,0.00,Weather View 32 v70,2013-01-19 20:00:00,
2013-01-19 15:05:00,57.0,25.8,29.27,SSW,202,5.0,10.0,30,0.00,,,0.00,Weather View 32 v70,2013-01-19 20:05:00,
2013-01-19 15:10:00,56.0,25.7,29.26,SSE,157,6.0,12.0,31,0.00,,,0.00,Weather View 32 v70,2013-01-19 20:10:00,
2013-01-19 15:15:00,56.0,25.7,29.26,SSE,157,4.0,12.0,31,0.00,,,0.00,Weather View 32 v70,2013-01-19 20:15:00,
2013-01-19 15:20:00,56.0,26.5,29.26,SW,225,2.0,12.0,32,0.00,,,0.00,Weather View 32 v70,2013-01-19 20:20:00,
2013-01-19 15:25:00,56.0,26.5,29.26,WSW,247,3.0,12.0,32,0.00,,,0.00,Weather View 32 v70,2013-01-19 20:25:00,
2013-01-19 15:31:00,55.0,25.6,29.26,WSW,247,3.0,12.0,32,0.00,,,0.00,Weather View 32 v70,2013-01-19 20:31:00,
2013-01-19 15:36:00,55.0,26.4,29.26,WSW,247,0.0,12.0,33,0.00,,,0.00,Weather View 32 v70,2013-01-19 20:36:00,
2013-01-19 15:41:00,55.0,24.9,29.25,SSW,202,0.0,15.0,31,0.00,,,0.00,Weather View 32 v70,2013-01-19 20:41:00,
2013-01-19 15:47:00,55.0,27.1,29.25,SSE,157,1.0,15.0,34,0.00,,,0.00,Weather View 32 v70,2013-01-19 20:47:00,
2013-01-19 15:52:00,55.0,26.4,29.25,SE,135,8.0,15.0,33,0.00,,,0.00,Weather View 32 v70,2013-01-19 20:52:00,
2013-01-19 15:57:00,55.0,25.6,29.25,WSW,247,4.0,15.0,32,0.00,,,0.00,Weather View 32 v70,2013-01-19 20:57:00,
2013-01-19 16:02:00,55.0,26.4,29.24,SSE,157,1.0,15.0,33,0.00,,,0.00,Weather View 32 v70,2013-01-19 21:02:00,
2013-01-19 16:07:00,55.0,26.4,29.24,SSW,202,3.0,15.0,33,0.00,,,0.00,Weather View 32 v70,2013-01-19 21:07:00,
2013-01-19 16:12:00,54.0,25.5,29.24,SSE,157,4.0,15.0,33,0.00,,,0.00,Weather View 32 v70,2013-01-19 21:12:00,
2013-01-19 16:17:00,55.0,27.1,29.24,SSE,157,2.0,15.0,34,0.00,,,0.00,Weather View 32 v70,2013-01-19 21:17:00,
2013-01-19 16:23:00,54.0,25.5,29.24,SSW,202,1.0,15.0,33,0.00,,,0.00,Weather View 32 v70,2013-01-19 21:23:00,
2013-01-19 16:28:00,54.0,25.5,29.24,SSE,157,8.0,15.0,33,0.00,,,0.00,Weather View 32 v70,2013-01-19 21:28:00,
2013-01-19 16:33:00,53.0,25.3,29.24,SSE,157,0.0,15.0,34,0.00,,,0.00,Weather View 32 v70,2013-01-19 21:33:00,
2013-01-19 16:38:00,53.0,25.3,29.24,SW,225,3.0,15.0,34,0.00,,,0.00,Weather View 32 v70,2013-01-19 21:38:00,
2013-01-19 16:43:00,52.0,25.1,29.24,SSW,202,2.0,11.0,35,0.00,,,0.00,Weather View 32 v70,2013-01-19 21:43:00,
2013-01-19 16:48:00,52.0,24.4,29.23,WSW,247,0.0,11.0,34,0.00,,,0.00,Weather View 32 v70,2013-01-19 21:48:00,
2013-01-19 16:55:00,52.0,25.1,29.23,SSW,202,2.0,11.0,35,0.00,,,0.00,Weather View 32 v70,2013-01-19 21:55:00,
2013-01-19 17:00:00,51.0,22.9,29.23,SW,225,2.0,11.0,33,0.00,,,0.00,Weather View 32 v70,2013-01-19 22:00:00,
2013-01-19 17:05:00,51.0,24.3,29.23,SW,225,0.0,11.0,35,0.00,,,0.00,Weather View 32 v70,2013-01-19 22:05:00,
2013-01-19 17:10:00,51.0,24.3,29.23,SSW,202,0.0,10.0,35,0.00,,,0.00,Weather View 32 v70,2013-01-19 22:10:00,
2013-01-19 17:15:00,50.0,23.4,29.23,SW,225,0.0,10.0,35,0.00,,,0.00,Weather View 32 v70,2013-01-19 22:15:00,
2013-01-19 17:20:00,50.0,24.7,29.22,SSW,202,0.0,10.0,37,0.00,,,0.00,Weather View 32 v70,2013-01-19 22:20:00,
2013-01-19 17:25:00,49.0,23.8,29.22,South,180,0.0,10.0,37,0.00,,,0.00,Weather View 32 v70,2013-01-19 22:25:00,
2013-01-19 17:30:00,49.0,24.5,29.22,SSW,202,0.0,10.0,38,0.00,,,0.00,Weather View 32 v70,2013-01-19 22:30:00,
2013-01-19 17:35:00,49.0,24.5,29.22,SE,135,1.0,10.0,38,0.00,,,0.00,Weather View 32 v70,2013-01-19 22:35:00,
2013-01-19 17:40:00,49.0,25.1,29.22,South,180,0.0,10.0,39,0.00,,,0.00,Weather View 32 v70,2013-01-19 22:40:00,
2013-01-19 17:45:00,48.0,24.2,29.22,WSW,247,3.0,10.0,39,0.00,,,0.00,Weather View 32 v70,2013-01-19 22:45:00,
2013-01-19 17:50:00,48.0,24.2,29.22,SSE,157,0.0,10.0,39,0.00,,,0.00,Weather View 32 v70,2013-01-19 22:50:00,
2013-01-19 17:55:00,48.0,24.2,29.22,SSW,202,1.0,10.0,39,0.00,,,0.00,Weather View 32 v70,2013-01-19 22:55:00,
2013-01-19 18:00:00,48.0,24.8,29.22,South,180,1.0,10.0,40,0.00,,,0.00,Weather View 32 v70,2013-01-19 23:00:00,
2013-01-19 18:15:00,48.0,23.6,29.22,SW,225,0.0,7.0,38,0.00,,,0.00,Weather View 32 v70,2013-01-19 23:15:00,
2013-01-19 18:20:00,48.0,24.2,29.21,WSW,247,0.0,7.0,39,0.00,,,0.00,Weather View 32 v70,2013-01-19 23:20:00,
2013-01-19 18:25:00,48.0,24.2,29.21,WSW,247,0.0,7.0,39,0.00,,,0.00,Weather View 32 v70,2013-01-19 23:25:00,
2013-01-19 18:30:00,48.0,24.2,29.22,SSW,202,0.0,7.0,39,0.00,,,0.00,Weather View 32 v70,2013-01-19 23:30:00,
2013-01-19 18:35:00,47.0,23.9,29.22,SSW,202,0.0,7.0,40,0.00,,,0.00,Weather View 32 v70,2013-01-19 23:35:00,
2013-01-19 18:40:00,48.0,24.8,29.22,SSW,202,1.0,7.0,40,0.00,,,0.00,Weather View 32 v70,2013-01-19 23:40:00,
2013-01-19 18:45:00,48.0,24.8,29.22,ESE,112,0.0,9.0,40,0.00,,,0.00,Weather View 32 v70,2013-01-19 23:45:00,
2013-01-19 18:50:00,47.0,23.9,29.22,SE,135,1.0,10.0,40,0.00,,,0.00,Weather View 32 v70,2013-01-19 23:50:00,
2013-01-19 18:55:00,47.0,23.9,29.22,SSW,202,0.0,10.0,40,0.00,,,0.00,Weather View 32 v70,2013-01-19 23:55:00,
2013-01-19 19:00:00,47.0,24.5,29.21,SSW,202,3.0,10.0,41,0.00,,,0.00,Weather View 32 v70,2013-01-20 00:00:00,
2013-01-19 19:05:00,47.0,24.5,29.21,SSW,202,0.0,15.0,41,0.00,,,0.00,Weather View 32 v70,2013-01-20 00:05:00,
2013-01-19 19:10:00,47.0,25.1,29.21,WSW,247,3.0,15.0,42,0.00,,,0.00,Weather View 32 v70,2013-01-20 00:10:00,
2013-01-19 19:15:00,47.0,25.1,29.21,SSW,202,4.0,15.0,42,0.00,,,0.00,Weather View 32 v70,2013-01-20 00:15:00,
2013-01-19 19:20:00,47.0,25.1,29.21,WSW,247,0.0,15.0,42,0.00,,,0.00,Weather View 32 v70,2013-01-20 00:20:00,
2013-01-19 19:27:00,47.0,25.6,29.21,SW,225,0.0,15.0,43,0.00,,,0.00,Weather View 32 v70,2013-01-20 00:27:00,
2013-01-19 19:32:00,46.0,24.7,29.21,SSE,157,0.0,15.0,43,0.00,,,0.00,Weather View 32 v70,2013-01-20 00:32:00,
2013-01-19 19:37:00,46.0,24.7,29.21,SSW,202,3.0,15.0,43,0.00,,,0.00,Weather View 32 v70,2013-01-20 00:37:00,
2013-01-19 19:42:00,46.0,24.7,29.21,WNW,292,1.0,15.0,43,0.00,,,0.00,Weather View 32 v70,2013-01-20 00:42:00,
2013-01-19 19:47:00,46.0,25.3,29.21,NNW,337,0.0,15.0,44,0.00,,,0.00,Weather View 32 v70,2013-01-20 00:47:00,
2013-01-19 19:52:00,46.0,25.8,29.20,SE,135,2.0,15.0,45,0.00,,,0.00,Weather View 32 v70,2013-01-20 00:52:00,
2013-01-19 19:57:00,45.0,24.9,29.20,WSW,247,3.0,15.0,45,0.00,,,0.00,Weather View 32 v70,2013-01-20 00:57:00,
2013-01-19 20:02:00,45.0,25.4,29.20,SSW,202,5.0,11.0,46,0.00,,,0.00,Weather View 32 v70,2013-01-20 01:02:00,
2013-01-19 20:07:00,45.0,25.4,29.20,SW,225,0.0,11.0,46,0.00,,,0.00,Weather View 32 v70,2013-01-20 01:07:00,
2013-01-19 20:12:00,45.0,25.4,29.20,SW,225,1.0,11.0,46,0.00,,,0.00,Weather View 32 v70,2013-01-20 01:12:00,
2013-01-19 20:17:00,45.0,26.0,29.20,SSE,157,0.0,11.0,47,0.00,,,0.00,Weather View 32 v70,2013-01-20 01:17:00,
2013-01-19 20:23:00,44.0,25.0,29.20,West,270,0.0,11.0,47,0.00,,,0.00,Weather View 32 v70,2013-01-20 01:23:00,
2013-01-19 20:28:00,44.0,25.5,29.20,SW,225,1.0,10.0,48,0.00,,,0.00,Weather View 32 v70,2013-01-20 01:28:00,
2013-01-19 20:33:00,44.0,25.5,29.19,SSE,157,3.0,10.0,48,0.00,,,0.00,Weather View 32 v70,2013-01-20 01:33:00,
2013-01-19 20:38:00,44.0,25.5,29.19,SW,225,0.0,10.0,48,0.00,,,0.00,Weather View 32 v70,2013-01-20 01:38:00,
2013-01-19 20:43:00,44.0,25.5,29.19,WSW,247,0.0,8.0,48,0.00,,,0.00,Weather View 32 v70,2013-01-20 01:43:00,
2013-01-19 20:48:00,44.0,25.5,29.19,SE,135,4.0,8.0,48,0.00,,,0.00,Weather View 32 v70,2013-01-20 01:48:00,
2013-01-19 20:53:00,44.0,25.5,29.18,South,180,2.0,8.0,48,0.00,,,0.00,Weather View 32 v70,2013-01-20 01:53:00,
2013-01-19 20:59:00,44.0,26.0,29.18,SSW,202,4.0,7.0,49,0.00,,,0.00,Weather View 32 v70,2013-01-20 01:59:00,
2013-01-19 21:04:00,44.0,25.5,29.18,SSE,157,3.0,9.0,48,0.00,,,0.00,Weather View 32 v70,2013-01-20 02:04:00,
2013-01-19 21:09:00,44.0,26.0,29.18,SW,225,0.0,9.0,49,0.00,,,0.00,Weather View 32 v70,2013-01-20 02:09:00,
2013-01-19 21:14:00,43.0,24.6,29.18,SE,135,0.0,9.0,48,0.00,,,0.00,Weather View 32 v70,2013-01-20 02:14:00,
2013-01-19 21:19:00,43.0,24.6,29.18,WSW,247,0.0,9.0,48,0.00,,,0.00,Weather View 32 v70,2013-01-20 02:19:00,
2013-01-19 21:24:00,43.0,24.6,29.18,SW,225,0.0,9.0,48,0.00,,,0.00,Weather View 32 v70,2013-01-20 02:24:00,
2013-01-19 21:29:00,43.0,24.6,29.18,West,270,3.0,9.0,48,0.00,,,0.00,Weather View 32 v70,2013-01-20 02:29:00,
2013-01-19 21:34:00,44.0,26.0,29.17,South,180,0.0,9.0,49,0.00,,,0.00,Weather View 32 v70,2013-01-20 02:34:00,
2013-01-19 21:39:00,43.0,24.6,29.17,WSW,247,0.0,9.0,48,0.00,,,0.00,Weather View 32 v70,2013-01-20 02:39:00,
2013-01-19 21:44:00,43.0,24.6,29.17,West,270,1.0,9.0,48,0.00,,,0.00,Weather View 32 v70,2013-01-20 02:44:00,
2013-01-19 21:49:00,44.0,26.0,29.17,SW,225,0.0,10.0,49,0.00,,,0.00,Weather View 32 v70,2013-01-20 02:49:00,
2013-01-19 21:54:00,44.0,25.5,29.17,WSW,247,0.0,10.0,48,0.00,,,0.00,Weather View 32 v70,2013-01-20 02:54:00,
2013-01-19 21:59:00,44.0,26.0,29.17,WNW,292,0.0,10.0,49,0.00,,,0.00,Weather View 32 v70,2013-01-20 02:59:00,
2013-01-19 22:04:00,44.0,25.5,29.17,SSW,202,1.0,10.0,48,0.00,,,0.00,Weather View 32 v70,2013-01-20 03:04:00,
2013-01-19 22:09:00,44.0,25.5,29.17,WSW,247,1.0,10.0,48,0.00,,,0.00,Weather View 32 v70,2013-01-20 03:09:00,
2013-01-19 22:14:00,44.0,25.5,29.17,SW,225,3.0,10.0,48,0.00,,,0.00,Weather View 32 v70,2013-01-20 03:14:00,
2013-01-19 22:19:00,44.0,25.5,29.16,WNW,292,2.0,10.0,48,0.00,,,0.00,Weather View 32 v70,2013-01-20 03:19:00,
2013-01-19 22:24:00,44.0,25.5,29.16,West,270,0.0,10.0,48,0.00,,,0.00,Weather View 32 v70,2013-01-20 03:24:00,
2013-01-19 22:29:00,44.0,25.5,29.16,SW,225,6.0,12.0,48,0.00,,,0.00,Weather View 32 v70,2013-01-20 03:29:00,
2013-01-19 22:35:00,44.0,25.5,29.16,SSW,202,0.0,12.0,48,0.00,,,0.00,Weather View 32 v70,2013-01-20 03:35:00,
2013-01-19 22:40:00,44.0,25.5,29.16,WNW,292,4.0,12.0,48,0.00,,,0.00,Weather View 32 v70,2013-01-20 03:40:00,
2013-01-19 22:45:00,44.0,25.5,29.16,SSE,157,0.0,12.0,48,0.00,,,0.00,Weather View 32 v70,2013-01-20 03:45:00,
2013-01-19 22:50:00,44.0,26.0,29.15,WSW,247,3.0,12.0,49,0.00,,,0.00,Weather View 32 v70,2013-01-20 03:50:00,
2013-01-19 22:55:00,44.0,26.0,29.15,SW,225,0.0,12.0,49,0.00,,,0.00,Weather View 32 v70,2013-01-20 03:55:00,
2013-01-19 23:00:00,44.0,26.0,29.14,SSW,202,0.0,12.0,49,0.00,,,0.00,Weather View 32 v70,2013-01-20 04:00:00,
2013-01-19 23:05:00,44.0,26.0,29.14,SW,225,3.0,12.0,49,0.00,,,0.00,Weather View 32 v70,2013-01-20 04:05:00,
2013-01-19 23:10:00,44.0,26.0,29.14,SW,225,2.0,12.0,49,0.00,,,0.00,Weather View 32 v70,2013-01-20 04:10:00,
2013-01-19 23:15:00,44.0,26.0,29.14,WSW,247,1.0,12.0,49,0.00,,,0.00,Weather View 32 v70,2013-01-20 04:15:00,
2013-01-19 23:20:00,44.0,26.0,29.14,West,270,0.0,12.0,49,0.00,,,0.00,Weather View 32 v70,2013-01-20 04:20:00,
2013-01-19 23:25:00,44.0,25.5,29.13,SW,225,3.0,12.0,48,0.00,,,0.00,Weather View 32 v70,2013-01-20 04:25:00,
2013-01-19 23:30:00,44.0,25.5,29.13,SW,225,0.0,10.0,48,0.00,,,0.00,Weather View 32 v70,2013-01-20 04:30:00,
2013-01-19 23:35:00,44.0,26.0,29.13,SW,225,0.0,10.0,49,0.00,,,0.00,Weather View 32 v70,2013-01-20 04:35:00,
2013-01-19 23:40:00,44.0,26.0,29.12,WSW,247,0.0,10.0,49,0.00,,,0.00,Weather View 32 v70,2013-01-20 04:40:00,
2013-01-19 23:45:00,44.0,26.5,29.12,SSW,202,9.0,10.0,50,0.00,,,0.00,Weather View 32 v70,2013-01-20 04:45:00,
2013-01-19 23:50:00,44.0,26.0,29.12,SW,225,0.0,10.0,49,0.00,,,0.00,Weather View 32 v70,2013-01-20 04:50:00,
2013-01-19 23:55:00,44.0,26.0,29.12,SW,225,4.0,10.0,49,0.00,,,0.00,Weather View 32 v70,2013-01-20 04:55:00,